www.pogodaiklimat.ru

Архив погоды в Одессе (Одесская область, Украина)

Время
(UTC), дата
00 10.08
03 10.08
06 10.08
09 10.08
12 10.08
15 10.08
18 10.08
21 10.08
00 11.08
03 11.08
06 11.08
09 11.08
12 11.08
15 11.08
18 11.08
21 11.08
00 12.08
03 12.08
06 12.08
09 12.08
12 12.08
15 12.08
18 12.08
21 12.08
00 13.08
03 13.08
06 13.08
09 13.08
12 13.08
15 13.08
18 13.08
21 13.08
00 14.08
03 14.08
06 14.08
09 14.08
12 14.08
15 14.08
18 14.08
21 14.08
00 15.08
03 15.08
06 15.08
09 15.08
12 15.08
15 15.08
18 15.08
21 15.08
00 16.08
03 16.08
06 16.08
09 16.08
12 16.08
15 16.08
18 16.08
Ветер
(напр.,м/с)
Видим. Явления Облачность Т
(С)
Тd
(С)
f
(%)
Тe
(С)
Тes
(С)
Комфортность P
(гПа)
Po
(гПа)
Тmin
(С)
Tmax
(С)
R
(мм)
R24
(мм)
S
(см)
СЗ 4 50 км 3/0
[Ci fib]
+21.8 +15.2 66 +25 +25 комфорт 1015.8 1010.9
СЗ 3 50 км 8/3 600 м
[Sc Ac trans Ci fib]
+20.0 +14.6 71 +22 +22 комфорт 1015.5 1010.6
С 6 50 км 8/3 600 м
[Cu hum Ac trans Ci fib]
+23.2 +15.8 63 +28 +29 душно 1015.2 1010.3 +20.0
С 3 30 км 9/3 600 м
[Cu hum Ci]
+30.2 +16.6 44 +34 +41 очень
душно
1014.1 1009.3
С 2 40 км 8/3 600 м
[Cu hum Ci]
+32.9 +15.0 34 +35 +42 душно 1013.3 1008.6
С 2 30 км 8/3 600 м
[Cu hum Ac trans Ci]
+29.2 +15.7 44 +32 +33 душно 1013.3 1008.5
СЗ 3 40 км гроза без осадков 8/6 600 м
[Cb calv Ac trans]
+24.3 +14.4 54 +27 +27 жарко 1014.0 1009.1 +33.7
СЗ 5 20 км гроза, ливневой дождь 10/8 600 м
[Cb calv Ac und]
+18.5 +16.8 90 +19 +19 прохладно 1014.2 1009.2
СЗ 2 20 км гроза без осадков {ливн. дождь} 10/6 600 м
[Cb cap Ac und]
+17.5 +16.2 92 +18 +18 прохладно 1013.4 1008.4
СЗ 3 20 км {гроза} 6/3 600 м
[Sc diur, vesp Ci fib]
+17.7 +15.9 89 +18 +18 прохладно 1012.5 1007.5
СЗ 3 30 км {гроза} 8/6 600 м
[Sc diur, vesp Ac und]
+19.9 +16.5 81 +23 +24 комфорт 1011.8 1006.9 +17.3 18
С 2 40 км гроза, ливневой дождь 10/8 300 м
[Cb cap Ac cuf]
+22.3 +17.2 73 +27 +28 душно 1012.3 1007.4
СЗ 2 9000 м слаб. ливневой дождь {гроза} 10/10 300 м
[Cb calv]
+21.4 +18.2 82 +26 +26 душно 1012.4 1007.5
СЗ 2 25 км {ливн. дождь} 10/5 600 м
[Sc diur, vesp Ac und Ci]
+23.7 +18.6 73 +28 +29 душно 1012.0 1007.1
СЗ 3 26 км {ливн. дождь} 8/6 600 м
[Sc diur, vesp Ac und]
+24.2 +17.0 64 +28 +28 душно 1012.6 1007.8 +25.5 0.6
С 1 28 км {ливн. дождь} 10/3 600 м
[Sc Ac und Ci]
+21.3 +16.7 75 +25 +25 комфорт 1012.8 1007.9
СЗ 2 27 км {ливн. дождь} 10/0
[Ac und Ci]
+20.7 +16.3 76 +25 +25 комфорт 1013.3 1008.4
СЗ 2 9000 м 10/8 600 м
[Cb calv Ac und]
+20.2 +16.6 80 +24 +24 комфорт 1012.7 1007.8
СЗ 2 29 км {ливн. дождь} 9/5 600 м
[Sc diur, vesp Ac und]
+21.2 +18.0 82 +25 +27 комфорт 1012.0 1007.1 +19.1 1
С 1 20 км 9/5 600 м
[Sc diur, vesp Ac und]
+25.3 +19.4 70 +31 +35 очень
душно
1011.6 1006.8
В 2 22 км 6/4 600 м
[Cu med, cong Ac cuf]
+28.4 +17.3 51 +32 +38 душно 1010.8 1006.0
С 1 23 км в посл. час гроза 9/6 1300 м
[Cb cap Ac cuf]
+24.3 +19.6 75 +30 +30 очень
душно
1011.3 1006.5
СЗ 2 24 км {гроза} 6/3 600 м
[Sc diur, vesp Ac trans Ci]
+23.6 +17.1 67 +27 +27 жарко 1011.2 1006.3 +30.5
СЗ 2 17 км 5/0
[Ac trans Ci fib]
+23.3 +18.2 73 +29 +29 душно 1010.6 1005.7
С 1 15 км 6/4 600 м
[Sc diur, vesp Ac trans]
+21.6 +19.3 87 +27 +27 душно 1010.4 1005.5
С 1 12 км 6/6 180 м
[St]
+20.9 +19.2 90 +27 +27 душно 1009.9 1005.0
В 4 1200 м дымка 10/10 60 м
[St]
+21.9 +20.2 90 +28 +28 душно 1010.1 1005.2 +20.7
В 3 10 км 10/8 90 м
[Sc Ci fib]
+24.5 +21.0 81 +31 +33 очень
душно
1010.2 1005.4
В 1 25 км 8/4 600 м
[Sc diur, vesp Ci fib]
+25.2 +20.0 73 +31 +39 очень
душно
1009.8 1005.0
Ю 2 18 км 9/4 600 м
[Sc diur, vesp Ci]
+24.7 +19.5 73 +30 +31 очень
душно
1008.8 1004.0
штиль 0 14 км 4/3 600 м
[Sc diur, vesp Ac trans Ci fib]
+22.6 +19.4 82 +29 +29 очень
душно
1008.5 1003.7 +25.9
З 1 8000 м дымка 6/0
[Ac trans Ci fib]
+20.8 +18.9 89 +26 +26 душно 1007.9 1003.0
З 1 9000 м дымка 10/0
[Ac trans Ci fib]
+21.2 +18.8 86 +26 +26 душно 1007.6 1002.7
С 1 15 км 9/3 600 м
[Sc Ac trans Ci fib]
+21.4 +19.0 86 +26 +26 душно 1007.0 1002.1
С 1 16 км 8/3 600 м
[Cu hum Ac trans Ci fib]
+24.0 +20.1 79 +30 +33 очень
душно
1006.5 1001.7 +20.7
СВ 1 17 км 9/3 600 м
[Cu hum Ac trans]
+26.1 +19.7 68 +32 +38 очень
душно
1006.5 1001.7
Ю 2 29 км 6/4 600 м
[Cu hum Ac trans]
+28.6 +16.2 47 +32 +38 душно 1005.3 1000.6
Ю 2 35 км 8/3 600 м
[Sc diur, vesp Ac trans]
+28.4 +15.0 44 +31 +32 душно 1004.8 1000.1
В 5 15 км гроза без осадков 10/6 600 м
[Cb calv Ac und]
+25.1 +20.4 75 +31 +31 очень
душно
1006.2 1001.4 +30.0
СЗ 6 25 км {гроза, ливн. дождь} 6/4 600 м
[Sc diur, vesp Ac trans]
+23.0 +17.7 72 +28 +28 душно 1006.1 1001.3
СЗ 2 30 км {гроза, ливн. дождь} 6/4 600 м
[Sc diur, vesp Ac trans]
+23.1 +17.6 71 +28 +28 душно 1004.4 999.6
СЗ 1 23 км 8/4 600 м
[Sc diur, vesp Ac trans]
+21.3 +16.5 74 +25 +25 комфорт 1004.3 999.4
С 1 24 км 10/6 930 м
[Sc diur, vesp Ac As Ci fib]
+23.4 +16.9 67 +29 +30 душно 1004.4 999.6 +21.3 0.0
СВ 2 19 км 10/3 600 м
[Sc diur, vesp Ac As Cs]
+24.4 +18.3 69 +29 +34 душно 1004.7 999.9
Ю 3 20 км 10/3 600 м
[Sc diur, vesp Ac As Ci fib]
+25.0 +20.5 76 +31 +35 очень
душно
1005.2 1000.4
З 3 15 км слаб. ливневой дождь 10/6 300 м
[Cb calv Ac und]
+24.8 +20.9 79 +31 +31 очень
душно
1005.6 1000.8
С 1 27 км слаб. ливневой дождь, в посл. час гроза 10/8 300 м
[Cb cap Ac trans]
+23.1 +16.9 68 +28 +28 душно 1006.4 1001.6 +25.6 0.0
З 1 13 км в посл. час гроза {ливн. дождь} 9/6 600 м
[Cb calv Ac trans Ci fib]
+23.2 +20.3 84 +30 +30 очень
душно
1007.2 1002.4
штиль 0 24 км {гроза, ливн. дождь} 6/0
[Ci fib]
+19.9 +17.3 85 +22 +22 комфорт 1007.1 1002.2
ЮЗ 1 10 км 6/3 600 м
[Sc diur, vesp Ac trans Ci fib]
+20.7 +19.0 90 +26 +26 душно 1006.9 1002.0
ЮВ 2 30 км 6/4 420 м
[Sc Ac trans]
+24.9 +21.0 79 +31 +34 очень
душно
1007.0 1002.2 +19.8 0.0
ЮВ 2 23 км гроза без осадков 8/8 1080 м
[Cb cap Ci sp]
+27.3 +20.4 66 +34 +37 очень
душно
1007.8 1003.0
Ю 4 30 км в посл. час гроза {ливн. дождь} 9/8 600 м
[Cb calv Ac cuf]
+24.6 +19.9 75 +30 +31 очень
душно
1008.0 1003.2 0.0
ЮЗ 2 40 км в посл. час ливневой дождь 9/6 600 м
[Cb calv Ac cuf]
+25.1 +19.5 71 +30 +31 душно 1008.5 1003.7
ЮЗ 1 45 км в посл. час ливневой дождь 9/6 600 м
[Cb calv Ac cuf]
+23.9 +18.5 72 +28 +28 душно 1008.5 1003.7 +27.5 0.0
Местоположение метеостанции Одесса (Одесская область, Украина): широта 46.43 долгота 30.77 высота над уровнем моря 42 м.
В архиве по умолчанию представлена погода в Одессе за последнюю неделю. Архивные данные за месяц целиком и за предыдущие месяцы, начиная с января 2011 года, Вы можете получить, выбрав интересующий диапазон дат из раскрывающегося списка и нажав кнопку "Найти!".
*Определитесь, кто Вы:
Внимание! Время в таблицах - всемирное. Для получения местного времени необходимо прибавить поправку, которая равна 2 ч.
Смотрите также архив погоды в соседних городах и на ближайших метеорологических станциях:
Партнеры нашего сайта:      
Пояснения к столбцам:
  • Ветер - указаны скорость ветра в м/с - средняя за 10 мин, порывы в срок и между сроками (в фигурных скобках) и направление, откуда дует ветер: С - северный,
  • СВ - северо-восточный, В - восточный, ЮВ - юго-восточный, Ю - южный, ЮЗ - юго-западный, З - западный, СЗ - северо-западный.
  • Видимость - горизонтальная дальность видимости в метрах или километрах. При видимости от 1 до 10 км при отсутствии осадков обычно наблюдается дымка, при ухудшении видимости до 1 км и менее - туман. В сухую погоду видимость может ухудшаться дымом, пылью или мглою.
  • Явления - указаны атмосферные явления, наблюдавшиеся в срок или в последний час перед сроком; фигурными скобками обозначены явления, наблюдавшиеся между сроками (за 1-3 часа до срока); квадратными скобками обозначены град или гололедные отложения с указанием их диаметра в мм.
  • Облачность - указаны через наклонную черту общая и нижняя облачность в баллах и высота нижней границы облаков в метрах; квадратными скобками обозначены формы облаков: Ci - перистые, Cs - перисто-слоистые, Cc - перисто-кучевые, Ac - высококучевые, As - высокослоистые, Sc - слоисто-кучевые, Ns - слоисто-дождевые, Cu - кучевые, Cb - кучево-дождевые. Подробнее классификацию облаков см. в Атласе облаков (PDF).
  • T - Температура воздуха - температура, измеренная на высоте 2 м над землей.
  • Td - Температура точки росы - температура, при понижении до которой содержащийся в воздухе водяной пар достигнет насыщения.
  • f - Относительная влажность воздуха - влажноcть воздуха, измеренная на высоте 2 м над землей.
  • Te - Эффективная температура - температура, которую ощущает одетый по сезону человек в тени. Характеристика душности погоды. При расчете учитывается влияние влажности воздуха и скорости ветра на теплоощущения человека.
  • Tes - Эффективная температура на солнце - температура, которую ощущает человек, с поправкой на солнечный нагрев. Характеристика знойности погоды. Зависит от высоты солнца над горизонтом, облачности и скорости ветра. Ночью, в пасмурную погоду, а также при ветре 12 м/с и более поправка равна нулю.
  • P - Атмосферное давление - приведенное к уровню моря атмосферное давление.
  • Po - Атмосферное давление - измеренное на уровне метеостанции атмосферное давление.
  • Tmin - Минимальная температура - минимум температуры воздуха на высоте 2 м над землей.
  • Tmax - Максимальная температура - максимум температуры воздуха на высоте 2 м над землей.
  • R - Количество осадков - Количество выпавших осадков за период времени, мм. При наведении курсора мыши на число - период времени, за который выпало указанное количество осадков.
  • R24 - Количество осадков - Количество выпавших осадков за 24 часа, мм.
  • S - Снежный покров - Высота снежного покрова, см. При наведении курсора мыши на число - состояние снежного покрова и степень покрытия местности в баллах.